Location: Augirein
(42.9320°N, 0.9181°E)
Time: 02:17:34
(UTC+00:00)

Cosmos 1825 Rocket - Pass Details

Date: 20 June 2021
Orbit: 603 x 631 km, 82.5° (Epoch: 04 August)

Event Time Altitude Azimuth Distance (km) Brightness Sun altitude
Exits shadow 00:45:40 52° 259° (WSW) 789 3.9 -22.7°
Maximum altitude 00:46:05 54° 281° (W) 769 3.9 -22.7°
Drops below altitude 10° 00:50:28 10° 359° (N) 2,015 7.2 -22.5°
Sets 00:52:45 0° 4° (N) 2,923 8.5 -22.4°
